[[{"header":{"parameterUnit":"m.s-1","parameterCategory":1,"la1":30.2992,"la2":30.254,"lo1":-89.0895,"lo2":-89.0443,"dy":0.0025,"dx":0.0025,"nx":19,"ny":19,"refTime":"2026-05-17T09:00:00:Z","depth":0,"parameterNumber":2,"parameterNumberName":"U-component_of_WINDS"},"data":[0,0,0,-4.0906,-4.0909,-4.104,-4.1041,-4.1216,-4.1218,0,0,0,0,0,0,0,0,0,0,0,-4.0871,-4.0873,-4.0906,-4.0909,-4.104,-4.1041,-4.1216,-4.1218,0,0,0,0,0,0,0,0,0,0,0,-4.0871,-4.0872,-4.0874,-4.0909,-4.104,-4.1041,-4.1216,-4.1114,0,0,0,0,0,0,0,0,0,0,-4.0985,-4.0958,-4.0872,-4.0874,-4.091,-4.104,-4.1041,-4.1109,-4.112,-4.116,0,-4.1197,0,-4.121,-4.123,-4.1231,0,0,0,-4.0905,-4.0948,-4.098,-4.0874,-4.0912,-4.104,-4.098,-4.1115,-4.1128,-4.1175,-4.1199,-4.1206,-4.1213,-4.1232,-4.1232,-4.1475,-4.1476,0,0,-4.0898,-4.0898,-4.0971,-4.0988,-4.0969,-4.0976,-4.0984,-4.1123,-4.1149,-4.12,-4.121,-4.1216,-4.1233,-4.1234,-4.1473,-4.1475,0,0,0,-4.088,-4.0893,-4.092,-4.0981,-4.1004,-4.098,-4.0989,-4.1143,-4.1152,-4.1212,-4.1218,-4.1234,-4.1236,-4.1472,-4.1474,-4.1537,0,0,0,-4.0875,-4.0882,-4.0917,-4.0918,-4.1002,-4.1075,-4.1006,-4.1142,-4.1158,-4.1217,-4.1234,-4.1238,-4.1471,-4.1473,-4.1532,-4.1566,0,0,0,-4.0861,-4.088,-4.0901,-4.0918,-4.0975,-4.1073,-4.109,-4.1146,-4.1162,-4.1231,-4.1238,-4.147,-4.1473,-4.1528,-4.1559,-4.1628,0,0,0,-4.0846,-4.0955,-4.0902,-4.1026,-4.0974,-4.1111,-4.1089,-4.1192,-4.1258,-4.1235,-4.1471,-4.1474,-4.1526,-4.1554,-4.1624,-4.1685,-4.1712,0,0,-4.0983,-4.0971,-4.1045,-4.1001,-4.1148,-4.1091,-4.1248,-4.1309,-4.1317,-4.1421,-4.1427,-4.1533,-4.1558,-4.1627,-4.1861,-4.1882,0,0,0,-4.1088,-4.114,-4.1179,-4.1243,-4.1293,-4.1338,-4.1376,-4.1399,-4.1488,-4.137,-4.1578,-4.1593,-4.1634,-4.1663,-4.1681,-4.1715,-4.1488,-4.1488,-4.1487,-4.1279,-4.1283,-4.1404,-4.1423,-4.1486,-4.1524,-4.1574,-4.1611,-4.1597,-4.1646,-4.1677,-4.1818,-4.1853,-4.1866,-4.1902,-4.1711,-4.1712,-4.1712,-4.1712,-4.1478,-4.1552,-4.1531,-4.1641,-4.1644,-4.1737,-4.1778,-4.1765,-4.1851,-4.1796,-4.1832,-4.1769,-4.1889,-4.192,-4.1717,-4.1716,-4.1715,-4.1715,-4.1715,-4.1602,-4.1638,-4.1665,-4.1757,-4.1828,-4.1845,-4.1928,-4.1929,-4.193,-4.1966,-4.1997,-4.1996,-4.1994,-4.1981,-4.1982,-4.1982,-4.1983,-4.1983,-4.1983,-4.172,-4.1748,-4.1818,-4.1881,-4.1921,-4.1975,-4.2016,-4.2056,-4.2101,-4.2094,-4.2095,-4.2075,-4.1901,-4.1856,-4.1991,-4.1989,-4.1988,-4.1988,-4.1987,-4.1917,-4.1873,-4.1981,-4.2022,-4.2096,-4.2165,-4.2166,-4.2248,-4.2281,-4.2323,-4.2296,-4.2168,-4.2156,-4.2142,-4.2104,-4.2296,-4.2296,-4.2296,-4.2296,-4.202,-4.2015,-4.2125,-4.2191,-4.2255,-4.2267,-4.2389,-4.2422,-4.2449,-4.247,-4.2443,-4.2394,-4.238,-4.2376,-4.2357,-4.2322,-4.2565,-4.2565,-4.2565,-4.2141,-4.2142,-4.2245,-4.2271,-4.2329,-4.2379,-4.2494,-4.2569,-4.2591,-4.2576,-4.2486,-4.2475,-4.2396,-4.2371,-4.2351,-4.2321,-4.2257,0,0]},{"header":{"parameterUnit":"m.s-1","parameterCategory":1,"la1":30.2992,"la2":30.254,"lo1":-89.0895,"lo2":-89.0443,"dy":0.0025,"dx":0.0025,"nx":19,"ny":19,"refTime":"2026-05-17T09:00:00:Z","depth":0,"parameterNumber":3,"parameterNumberName":"V-component_of_WINDS"},"data":[0,0,0,3.3611,3.3612,3.3658,3.3658,3.3725,3.3725,0,0,0,0,0,0,0,0,0,0,0,3.3603,3.3604,3.3611,3.3612,3.3658,3.3658,3.3725,3.3725,0,0,0,0,0,0,0,0,0,0,0,3.3603,3.3604,3.3605,3.3612,3.3658,3.3658,3.3724,3.3687,0,0,0,0,0,0,0,0,0,0,3.364,3.364,3.3604,3.3605,3.3612,3.3658,3.3658,3.3685,3.3689,3.3708,0,3.3728,0,3.3728,3.3731,3.3731,0,0,0,3.3607,3.3636,3.3643,3.3605,3.3613,3.3658,3.3636,3.3687,3.3692,3.3714,3.3728,3.3731,3.3729,3.3731,3.3731,3.3862,3.3862,0,0,3.3604,3.3614,3.364,3.3647,3.3642,3.3634,3.3637,3.369,3.3706,3.3729,3.3732,3.373,3.3732,3.3732,3.3861,3.3862,0,0,0,3.36,3.3613,3.3618,3.3645,3.3652,3.3636,3.3639,3.3703,3.3704,3.3733,3.3731,3.3732,3.3733,3.386,3.3861,3.3914,0,0,0,3.3599,3.3611,3.3618,3.3624,3.3652,3.3679,3.3652,3.3701,3.3706,3.373,3.3732,3.3734,3.3859,3.3861,3.391,3.3936,0,0,0,3.3598,3.361,3.3619,3.3625,3.3645,3.3678,3.3681,3.3702,3.3706,3.3731,3.3734,3.3858,3.386,3.3907,3.3931,3.3974,0,0,0,3.36,3.3664,3.362,3.3691,3.3645,3.371,3.3681,3.3729,3.3757,3.3732,3.3859,3.3861,3.3906,3.3928,3.3971,3.4012,3.403,0,0,3.3686,3.3675,3.3716,3.3678,3.3755,3.3702,3.3786,3.3801,3.3793,3.3839,3.3842,3.3911,3.3931,3.3973,3.4129,3.4144,0,0,0,3.3747,3.3776,3.3794,3.3823,3.3837,3.3851,3.3853,3.3858,3.3897,3.3819,3.3938,3.3949,3.3974,3.3993,3.4005,3.4026,3.387,3.387,3.387,3.3883,3.3871,3.3939,3.3933,3.3961,3.3963,3.3984,3.3991,3.397,3.3999,3.4012,3.4108,3.4131,3.414,3.4161,3.4033,3.4033,3.4033,3.4033,3.4008,3.4049,3.4021,3.4077,3.4064,3.411,3.4114,3.4098,3.4138,3.4096,3.4117,3.4072,3.4156,3.4174,3.4037,3.4036,3.4036,3.4036,3.4035,3.4096,3.4113,3.4121,3.4161,3.4194,3.4185,3.4226,3.4212,3.4199,3.422,3.4233,3.4232,3.423,3.4228,3.4228,3.4228,3.4229,3.4229,3.4229,3.4184,3.4191,3.4228,3.425,3.4267,3.4287,3.4291,3.4307,3.4321,3.4307,3.4307,3.4283,3.4167,3.4138,3.4234,3.4233,3.4233,3.4232,3.4232,3.4315,3.4284,3.4341,3.4358,3.4384,3.4417,3.44,3.4434,3.4445,3.4465,3.4437,3.4354,3.434,3.433,3.4306,3.444,3.444,3.444,3.444,3.4389,3.4382,3.4438,3.4467,3.4493,3.4484,3.4548,3.4552,3.455,3.4556,3.4535,3.4502,3.4492,3.4484,3.4471,3.4448,3.4615,3.4616,3.4616,3.447,3.4464,3.4522,3.4522,3.4542,3.4558,3.4618,3.4651,3.4643,3.4623,3.4561,3.4553,3.45,3.4483,3.4461,3.444,3.4398,0,0]}]]